{"data":{"norad_id":65653,"epoch":"2026-05-25T01:55:23.577600Z","epoch_age_seconds":67831,"freshness":"FRESH","line1":"1 65653U 25211B   26145.08013400  .00004645  00000+0  32572-3 0  9990","line2":"2 65653  97.4473 188.9500 0001298 144.0366 216.0948 15.05654633 38533","mean_motion":15.05654633,"eccentricity":0.0001298,"inclination_deg":97.4473,"raan_deg":188.95,"arg_perigee_deg":144.0366,"mean_anomaly_deg":216.0948,"bstar":0.00032572,"rev_number":3853,"period_min":95.63946262569,"perigee_km":548.5977359216,"apogee_km":550.39614969315,"semimajor_km":6927.6339428074,"source":"CELESTRAK","updated_at":"2026-05-25T13:38:20.887693Z"}}